| time (UTC) | temp F | wind direction | speed knots | gust knots | rain 1hr in | rain 24hr in | rain mn in | humidity % | barometer mb |
| 20260510091240 | 62 | 346 | 7.8 | 14.8 | 0.00 | 0.00 | 0.00 | 65 | 1014.6 |
| 20260510090248 | 63 | 360 | 3.5 | 13.0 | 0.00 | 0.00 | 0.00 | 67 | 1014.6 |
| 20260510085306 | 62 | 32 | 7.0 | 14.8 | 0.00 | 0.00 | 0.00 | 66 | 1014.5 |
| 20260510084253 | 62 | 47 | 7.8 | 12.2 | 0.00 | 0.00 | 0.00 | 65 | 1014.6 |
| 20260510083241 | 62 | 355 | 6.1 | 12.2 | 0.00 | 0.00 | 0.00 | 67 | 1014.7 |
| 20260510082306 | 61 | 355 | 6.1 | 13.9 | 0.00 | 0.00 | 0.00 | 68 | 1014.7 |
| 20260510081225 | 61 | 31 | 6.1 | 13.0 | 0.00 | 0.00 | 0.00 | 70 | 1014.8 |
| 20260510080226 | 60 | 40 | 6.1 | 12.2 | 0.00 | 0.00 | 0.00 | 71 | 1014.8 |
| 20260510075225 | 60 | 32 | 7.0 | 12.2 | 0.00 | 0.00 | 0.00 | 71 | 1014.8 |
| 20260510074249 | 59 | 9 | 6.1 | 10.4 | 0.00 | 0.00 | 0.00 | 74 | 1014.9 |
| 20260510073228 | 58 | 31 | 4.3 | 10.4 | 0.00 | 0.00 | 0.00 | 76 | 1015.0 |
| 20260510072248 | 58 | 346 | 6.1 | 9.6 | 0.00 | 0.00 | 0.00 | 77 | 1015.1 |
| 20260510071230 | 57 | 40 | 3.5 | 11.3 | 0.00 | 0.00 | 0.00 | 79 | 1015.1 |
| 20260510070236 | 56 | 25 | 6.1 | 12.2 | 0.00 | 0.00 | 0.00 | 80 | 1015.1 |
| 20260510065231 | 56 | 24 | 3.5 | 9.6 | 0.00 | 0.00 | 0.00 | 82 | 1015.1 |
| 20260510064232 | 55 | 12 | 6.1 | 12.2 | 0.00 | 0.00 | 0.00 | 83 | 1015.2 |
| 20260510063241 | 55 | 355 | 4.3 | 8.7 | 0.00 | 0.00 | 0.00 | 86 | 1015.1 |
| 20260510062324 | 54 | 22 | 2.6 | 10.4 | 0.00 | 0.00 | 0.00 | 87 | 1015.2 |
| 20260510061245 | 53 | 39 | 4.3 | 9.6 | 0.00 | 0.00 | 0.00 | 88 | 1015.3 |
| 20260510060242 | 53 | 13 | 3.5 | 10.4 | 0.00 | 0.00 | 0.00 | 89 | 1015.2 |
| 20260510055306 | 53 | 70 | 4.3 | 9.6 | 0.00 | 0.00 | 0.00 | 90 | 1015.1 |
| 20260510054239 | 52 | 30 | 6.1 | 9.6 | 0.00 | 0.00 | 0.00 | 90 | 1015.2 |
| 20260510053307 | 52 | 46 | 4.3 | 11.3 | 0.00 | 0.00 | 0.00 | 90 | 1015.2 |
| 20260510052258 | 52 | 9 | 5.2 | 7.8 | 0.00 | 0.00 | 0.00 | 90 | 1015.1 |
| 20260510051248 | 52 | 11 | 3.5 | 7.0 | 0.00 | 0.00 | 0.00 | 90 | 1015.1 |
| 20260510050244 | 52 | 11 | 5.2 | 8.7 | 0.00 | 0.00 | 0.00 | 90 | 1015.2 |
| 20260510045243 | 52 | 5 | 5.2 | 7.0 | 0.00 | 0.00 | 0.00 | 90 | 1015.2 |
| 20260510044253 | 52 | 27 | 5.2 | 7.8 | 0.00 | 0.00 | 0.00 | 90 | 1015.1 |
| 20260510043231 | 52 | 36 | 4.3 | 7.8 | 0.00 | 0.00 | 0.00 | 90 | 1015.1 |
| 20260510042242 | 52 | 360 | 2.6 | 7.8 | 0.00 | 0.00 | 0.00 | 89 | 1015.1 |
| 20260510041233 | 52 | 9 | 4.3 | 8.7 | 0.00 | 0.00 | 0.00 | 89 | 1015.1 |
| 20260510040232 | 52 | 42 | 3.5 | 7.0 | 0.00 | 0.00 | 0.00 | 88 | 1015.1 |
| 20260510035259 | 52 | 34 | 4.3 | 7.8 | 0.00 | 0.00 | 0.00 | 89 | 1015.1 |
| 20260510034259 | 52 | 11 | 5.2 | 8.7 | 0.00 | 0.00 | 0.00 | 88 | 1015.1 |
| 20260510033247 | 52 | 5 | 4.3 | 7.8 | 0.00 | 0.00 | 0.00 | 88 | 1015.1 |
| 20260510032256 | 52 | 43 | 4.3 | 7.0 | 0.00 | 0.00 | 0.00 | 87 | 1015.2 |
| 20260510031247 | 52 | 12 | 2.6 | 5.2 | 0.00 | 0.00 | 0.00 | 87 | 1015.3 |
| 20260510030225 | 52 | 12 | 2.6 | 5.2 | 0.00 | 0.00 | 0.00 | 86 | 1015.4 |
| 20260510025224 | 52 | 13 | 2.6 | 7.8 | 0.00 | 0.00 | 0.00 | 86 | 1015.4 |
| 20260510024226 | 52 | 349 | 2.6 | 5.2 | 0.00 | 0.00 | 0.00 | 85 | 1015.3 |
| 20260510023226 | 52 | 5 | 2.6 | 7.0 | 0.00 | 0.00 | 0.00 | 85 | 1015.3 |
| 20260510022244 | 52 | 33 | 3.5 | 7.0 | 0.00 | 0.00 | 0.00 | 85 | 1015.3 |
| 20260510021228 | 52 | 38 | 2.6 | 3.5 | 0.00 | 0.00 | 0.00 | 84 | 1015.4 |
| 20260510020228 | 51 | 36 | 2.6 | 5.2 | 0.00 | 0.00 | 0.00 | 84 | 1015.5 |
| 20260510015234 | 52 | 27 | 2.6 | 3.5 | 0.00 | 0.00 | 0.00 | 82 | 1015.5 |
| 20260510014235 | 52 | 43 | 1.7 | 3.5 | 0.00 | 0.00 | 0.00 | 81 | 1015.6 |
| 20260510013228 | 52 | 28 | 0.9 | 3.5 | 0.00 | 0.00 | 0.00 | 80 | 1015.6 |
| 20260510012249 | 53 | 40 | 2.6 | 4.3 | 0.00 | 0.00 | 0.00 | 80 | 1015.7 |
| 20260510011232 | 53 | 15 | 1.7 | 3.5 | 0.00 | 0.00 | 0.00 | 79 | 1015.6 |
| 20260510010243 | 53 | 43 | 3.5 | 5.2 | 0.00 | 0.00 | 0.00 | 79 | 1015.6 |
| 20260510005241 | 53 | 11 | 3.5 | 7.0 | 0.00 | 0.00 | 0.00 | 78 | 1015.7 |
| 20260510004310 | 54 | 34 | 3.5 | 5.2 | 0.00 | 0.00 | 0.00 | 77 | 1015.8 |
| 20260510003250 | 54 | 21 | 2.6 | 7.0 | 0.00 | 0.00 | 0.00 | 77 | 1015.8 |
| 20260510002246 | 54 | 37 | 2.6 | 5.2 | 0.00 | 0.00 | 0.00 | 77 | 1015.7 |
| 20260510001227 | 54 | 44 | 2.6 | 4.3 | 0.00 | 0.00 | 0.00 | 76 | 1015.9 |
| 20260510000251 | 54 | 29 | 2.6 | 3.5 | 0.00 | 0.00 | 0.00 | 76 | 1016.2 |
| 20260509235229 | 54 | 5 | 2.6 | 4.3 | 0.00 | 0.00 | 0.00 | 76 | 1016.0 |
| 20260509234228 | 54 | 28 | 2.6 | 4.3 | 0.00 | 0.00 | 0.00 | 75 | 1016.2 |
| 20260509233238 | 54 | 44 | 2.6 | 4.3 | 0.00 | 0.00 | 0.00 | 74 | 1016.1 |
| 20260509232248 | 54 | 42 | 2.6 | 3.5 | 0.00 | 0.00 | 0.00 | 74 | 1016.2 |
| 20260509231232 | 55 | 11 | 1.7 | 4.3 | 0.00 | 0.00 | 0.00 | 73 | 1016.3 |
| 20260509230242 | 55 | 17 | 2.6 | 4.3 | 0.00 | 0.00 | 0.00 | 73 | 1016.3 |
| 20260509225243 | 55 | 28 | 1.7 | 3.5 | 0.00 | 0.00 | 0.00 | 72 | 1016.2 |
| 20260509224244 | 56 | 28 | 2.6 | 6.1 | 0.00 | 0.00 | 0.00 | 72 | 1016.2 |
| 20260509223247 | 56 | 28 | 3.5 | 5.2 | 0.00 | 0.00 | 0.00 | 72 | 1016.2 |
| 20260509222256 | 56 | 30 | 2.6 | 5.2 | 0.00 | 0.00 | 0.00 | 72 | 1016.1 |
| 20260509221229 | 56 | 20 | 2.6 | 4.3 | 0.00 | 0.00 | 0.00 | 71 | 1016.3 |
| 20260509220238 | 57 | 48 | 1.7 | 5.2 | 0.00 | 0.00 | 0.00 | 71 | 1016.3 |
| 20260509215236 | 57 | 52 | 1.7 | 5.2 | 0.00 | 0.00 | 0.00 | 70 | 1016.3 |
| 20260509214246 | 57 | 31 | 2.6 | 4.3 | 0.00 | 0.00 | 0.00 | 70 | 1016.4 |
| 20260509213247 | 58 | 42 | 2.6 | 5.2 | 0.00 | 0.00 | 0.00 | 69 | 1016.2 |
| 20260509212330 | 58 | 12 | 3.5 | 5.2 | 0.00 | 0.00 | 0.00 | 68 | 1016.2 |
| 20260509211233 | 59 | 42 | 2.6 | 7.8 | 0.00 | 0.00 | 0.00 | 68 | 1016.3 |
| 20260509210254 | 59 | 30 | 2.6 | 6.1 | 0.00 | 0.00 | 0.00 | 67 | 1016.0 |
| 20260509205306 | 60 | 27 | 3.5 | 7.0 | 0.00 | 0.00 | 0.00 | 66 | 1016.0 |
| 20260509204232 | 60 | 47 | 3.5 | 7.0 | 0.00 | 0.00 | 0.00 | 65 | 1016.1 |
| 20260509203257 | 60 | 59 | 2.6 | 7.0 | 0.00 | 0.00 | 0.00 | 65 | 1016.0 |
| 20260509202248 | 60 | 5 | 3.5 | 7.0 | 0.00 | 0.00 | 0.00 | 65 | 1015.9 |
| 20260509201241 | 61 | 19 | 2.6 | 5.2 | 0.00 | 0.00 | 0.00 | 64 | 1016.1 |
| 20260509200238 | 61 | 42 | 3.5 | 7.0 | 0.00 | 0.00 | 0.00 | 63 | 1016.0 |
| 20260509195236 | 62 | 34 | 2.6 | 8.7 | 0.00 | 0.00 | 0.00 | 63 | 1016.0 |
| 20260509194243 | 62 | 22 | 3.5 | 7.8 | 0.00 | 0.00 | 0.00 | 63 | 1015.7 |
| 20260509193243 | 63 | 23 | 4.3 | 7.8 | 0.00 | 0.00 | 0.00 | 62 | 1015.6 |
| 20260509192305 | 63 | 27 | 2.6 | 5.2 | 0.00 | 0.00 | 0.00 | 61 | 1015.7 |
| 20260509191244 | 64 | 355 | 2.6 | 4.3 | 0.00 | 0.00 | 0.00 | 60 | 1015.6 |
| 20260509190246 | 65 | 340 | 0.9 | 3.5 | 0.00 | 0.00 | 0.00 | 59 | 1015.7 |
| 20260509185253 | 65 | 5 | 2.6 | 7.8 | 0.00 | 0.00 | 0.00 | 57 | 1015.7 |
| 20260509184254 | 66 | 338 | 2.6 | 5.2 | 0.00 | 0.00 | 0.00 | 57 | 1015.7 |
| 20260509183300 | 67 | 346 | 1.7 | 4.3 | 0.00 | 0.00 | 0.00 | 55 | 1015.6 |
| 20260509182252 | 68 | 42 | 0.9 | 2.6 | 0.00 | 0.00 | 0.00 | 54 | 1015.5 |
| 20260509181234 | 69 | 28 | 1.7 | 5.2 | 0.00 | 0.00 | 0.00 | 52 | 1015.7 |
| 20260509180243 | 69 | 36 | 2.6 | 5.2 | 0.00 | 0.00 | 0.00 | 51 | 1015.7 |
| 20260509175306 | 70 | 20 | 3.5 | 5.2 | 0.00 | 0.00 | 0.00 | 50 | 1015.5 |
| 20260509174251 | 70 | 36 | 0.9 | 3.5 | 0.00 | 0.00 | 0.00 | 51 | 1015.4 |
| 20260509173226 | 70 | 26 | 3.5 | 5.2 | 0.00 | 0.00 | 0.00 | 49 | 1015.3 |
| 20260509172249 | 71 | 43 | 1.7 | 4.3 | 0.00 | 0.00 | 0.00 | 51 | 1015.3 |
| 20260509171233 | 71 | 5 | 2.6 | 7.8 | 0.00 | 0.00 | 0.00 | 50 | 1015.3 |
| 20260509170234 | 72 | 9 | 1.7 | 5.2 | 0.00 | 0.00 | 0.00 | 47 | 1015.3 |
| 20260509165243 | 72 | 313 | 1.7 | 5.2 | 0.00 | 0.00 | 0.00 | 46 | 1015.4 |
| 20260509164259 | 72 | 355 | 0.0 | 1.7 | 0.00 | 0.00 | 0.00 | 47 | 1015.5 |
| 20260509163236 | 72 | 85 | 0.9 | 5.2 | 0.00 | 0.00 | 0.00 | 47 | 1015.6 |
| 20260509162256 | 72 | 360 | 2.6 | 5.2 | 0.00 | 0.00 | 0.00 | 48 | 1015.6 |
| 20260509161235 | 72 | 79 | 0.9 | 2.6 | 0.00 | 0.00 | 0.00 | 48 | 1015.6 |
| 20260509160247 | 72 | 30 | 0.9 | 3.5 | 0.00 | 0.00 | 0.00 | 48 | 1015.6 |
| 20260509155243 | 71 | 35 | 2.6 | 5.2 | 0.00 | 0.00 | 0.00 | 51 | 1015.6 |
| 20260509154243 | 72 | 44 | 1.7 | 6.1 | 0.00 | 0.00 | 0.00 | 49 | 1015.6 |
| 20260509153246 | 73 | 98 | 1.7 | 3.5 | 0.00 | 0.00 | 0.00 | 47 | 1015.7 |
| 20260509152326 | 73 | 87 | 2.6 | 13.0 | 0.00 | 0.00 | 0.00 | 53 | 1015.6 |
| 20260509151243 | 72 | 172 | 0.9 | 4.3 | 0.00 | 0.00 | 0.00 | 46 | 1015.8 |
| 20260509150245 | 72 | 312 | 2.6 | 4.3 | 0.00 | 0.00 | 0.00 | 47 | 1015.8 |
| 20260509145226 | 72 | 346 | 1.7 | 4.3 | 0.00 | 0.00 | 0.00 | 47 | 1015.8 |
| 20260509144314 | 71 | 53 | 0.9 | 2.6 | 0.00 | 0.00 | 0.00 | 50 | 1015.9 |
| 20260509143226 | 71 | 63 | 3.5 | 6.1 | 0.00 | 0.00 | 0.00 | 50 | 1016.0 |
| 20260509142248 | 73 | 67 | 0.9 | 7.0 | 0.00 | 0.00 | 0.00 | 49 | 1016.1 |
| 20260509141232 | 72 | 45 | 1.7 | 6.1 | 0.00 | 0.00 | 0.00 | 51 | 1016.2 |
| 20260509140230 | 73 | 355 | 1.7 | 7.0 | 0.00 | 0.00 | 0.00 | 50 | 1016.1 |
| 20260509135259 | 72 | 63 | 1.7 | 9.6 | 0.00 | 0.00 | 0.00 | 50 | 1016.1 |
| 20260509134237 | 72 | 360 | 2.6 | 7.8 | 0.00 | 0.00 | 0.00 | 52 | 1016.1 |
| 20260509133247 | 72 | 98 | 0.9 | 5.2 | 0.00 | 0.00 | 0.00 | 51 | 1016.3 |
| 20260509132301 | 72 | 34 | 1.7 | 5.2 | 0.00 | 0.00 | 0.00 | 51 | 1016.5 |
| 20260509131244 | 71 | 349 | 0.9 | 3.5 | 0.00 | 0.00 | 0.00 | 51 | 1016.7 |
| 20260509130252 | 71 | 94 | 1.7 | 7.8 | 0.00 | 0.00 | 0.00 | 51 | 1016.8 |
| 20260509125226 | 71 | 43 | 1.7 | 5.2 | 0.00 | 0.00 | 0.00 | 51 | 1017.0 |
| 20260509124228 | 71 | 121 | 1.7 | 4.3 | 0.00 | 0.00 | 0.00 | 54 | 1016.9 |
| 20260509123238 | 71 | 80 | 0.9 | 5.2 | 0.00 | 0.00 | 0.00 | 53 | 1016.9 |
| 20260509122251 | 71 | 130 | 1.7 | 3.5 | 0.00 | 0.00 | 0.00 | 54 | 1017.0 |
| 20260509121241 | 70 | 17 | 5.2 | 10.4 | 0.00 | 0.00 | 0.00 | 55 | 1017.2 |
| 20260509120241 | 71 | 90 | 0.9 | 6.1 | 0.00 | 0.00 | 0.00 | 55 | 1017.2 |
| 20260509115308 | 69 | 65 | 1.7 | 4.3 | 0.00 | 0.00 | 0.00 | 56 | 1017.3 |
| 20260509114227 | 68 | 59 | 1.7 | 4.3 | 0.00 | 0.00 | 0.00 | 58 | 1017.5 |
| 20260509113314 | 69 | 84 | 1.7 | 8.7 | 0.00 | 0.00 | 0.00 | 54 | 1017.6 |
| 20260509112302 | 69 | 38 | 3.5 | 7.8 | 0.00 | 0.00 | 0.00 | 52 | 1017.6 |
| 20260509111225 | 70 | 74 | 1.7 | 5.2 | 0.00 | 0.00 | 0.00 | 56 | 1017.7 |
| 20260509110248 | 70 | 106 | 0.9 | 7.0 | 0.00 | 0.00 | 0.00 | 55 | 1017.7 |
| 20260509105230 | 70 | 89 | 2.6 | 4.3 | 0.00 | 0.00 | 0.00 | 55 | 1017.8 |
| 20260509104319 | 69 | 105 | 1.7 | 7.0 | 0.00 | 0.00 | 0.00 | 52 | 1017.9 |
| 20260509103233 | 69 | 38 | 0.9 | 9.6 | 0.00 | 0.00 | 0.00 | 57 | 1017.9 |
| 20260509102310 | 69 | 33 | 3.5 | 7.8 | 0.00 | 0.00 | 0.00 | 53 | 1018.0 |
| 20260509101308 | 69 | 79 | 3.5 | 7.8 | 0.00 | 0.00 | 0.00 | 56 | 1018.0 |
| 20260509100252 | 69 | 78 | 3.5 | 9.6 | 0.00 | 0.00 | 0.00 | 55 | 1018.0 |
| 20260509095229 | 69 | 78 | 1.7 | 9.6 | 0.00 | 0.00 | 0.00 | 55 | 1018.0 |
| 20260509094226 | 68 | 94 | 1.7 | 3.5 | 0.00 | 0.00 | 0.00 | 56 | 1018.0 |
| 20260509093227 | 68 | 97 | 1.7 | 6.1 | 0.00 | 0.00 | 0.00 | 56 | 1018.1 |
| 20260509092306 | 68 | 20 | 1.7 | 4.3 | 0.00 | 0.00 | 0.00 | 58 | 1018.2 |